Torna al catalogo

COSMOS 2396

GLONASS

AttivoNavigazioneMEO
NORAD 27618·PAYLOAD·🇷🇺 Russia

Lanciato Dec 25, 2002 da Baikonur Cosmodrome

Loading…

Prossimi Passaggi (prossime 24 ore)

TLE

AggiornatoSource: Space-Track

Epoca: Sep 10, 2026, 11:20 UTC

1 27618U 02060B   26253.47236269 -.00000036  00000-0  00000+0 0  9998
2 27618  65.3766 312.7650 0003432 176.4153 182.4255  2.13100114184421

Traccia COSMOS 2396 in tempo reale con AllMySat

Download on the App Store